Simultaneous Nadir Overpasses (SNOs) Predictions

Prediction of SNOs between AQUA and NOAA-19 Satellite Orbit:

Table of predicted SNOs for the next 14.0 days since TLE Epoch: 2/13/2015
Index Date (AQUA) Time (AQUA) Lat,Lon (AQUA) SZA (AQUA ) Date (NOAA-19) Time (NOAA-19) Lat,Lon (NOAA-19) SZA (NOAA-19 ) Distance(km) Time Diff (sec)
1 02/13/2015 03:12:05 -79.45, -74.53 85.74 02/13/2015 03:11:47 -79.45, -74.51 85.74 0.45 18
2 02/15/2015 07:56:25 -79.57,-146.47 86.30 02/15/2015 07:55:22 -79.58,-146.54 86.26 1.45 63
3 02/15/2015 08:45:46 79.39, 22.47 93.41 02/15/2015 08:46:22 79.40, 22.35 93.42 2.64 36
4 02/17/2015 13:30:04 79.46, -49.06 92.76 02/17/2015 13:29:54 79.45, -48.94 92.74 2.78 10
5 02/19/2015 18:14:24 79.61,-121.24 92.22 02/19/2015 18:13:30 79.62,-121.39 92.26 3.11 54
6 02/19/2015 19:03:45 -79.42, 47.75 88.09 02/19/2015 19:04:20 -79.42, 47.70 88.10 1.12 35
7 02/21/2015 23:48:03 -79.52, -23.97 88.74 02/21/2015 23:47:54 -79.53, -24.10 88.72 2.86 9
8 02/24/2015 04:32:21 -79.63, -95.82 89.38 02/24/2015 04:31:28 -79.63, -95.94 89.34 2.56 53
9 02/24/2015 05:21:42 79.41, 73.34 90.29 02/24/2015 05:22:26 79.40, 73.39 90.26 1.18 44




NCC Satellite Simultaneous Nadir Overpasses (SNOs) Prediction Service
